Time,TemperatureF,DewpointF,PressureIn,WindDirection,WindDirectionDegrees,WindSpeedMPH,WindSpeedGustMPH,Humidity,HourlyPrecipIn,Conditions,Clouds,dailyrainin,SoftwareType,DateUTC
2013-04-04 00:06:00,50.2,49.9,29.87,West,270,3.2,-999.0,99,-99.99,,,0.00,Acu-Link.com,2013-04-04 07:06:00,
2013-04-04 00:22:00,50.4,50.1,29.86,WSW,247,3.2,-999.0,99,-99.99,,,0.00,Acu-Link.com,2013-04-04 07:22:00,
2013-04-04 00:37:00,50.5,50.2,29.86,WNW,292,3.2,-999.0,99,-99.99,,,0.00,Acu-Link.com,2013-04-04 07:37:00,
2013-04-04 00:52:00,50.7,50.4,29.86,WNW,292,3.7,-999.0,99,-99.99,,,0.00,Acu-Link.com,2013-04-04 07:52:00,
2013-04-04 01:08:00,50.7,50.4,29.86,WNW,292,0.0,-999.0,99,-99.99,,,0.00,Acu-Link.com,2013-04-04 08:08:00,
2013-04-04 01:23:00,50.7,50.4,29.86,NW,315,1.1,-999.0,99,-99.99,,,0.00,Acu-Link.com,2013-04-04 08:23:00,
2013-04-04 02:09:00,51.3,50.2,29.85,NW,315,2.2,-999.0,96,-99.99,,,0.00,Acu-Link.com,2013-04-04 09:09:00,
2013-04-04 02:24:00,51.4,50.9,29.84,ESE,112,0.0,-999.0,98,-99.99,,,0.01,Acu-Link.com,2013-04-04 09:24:00,
2013-04-04 02:39:00,51.3,50.8,29.84,SE,135,0.0,-999.0,98,-99.99,,,0.01,Acu-Link.com,2013-04-04 09:39:00,
2013-04-04 02:54:00,51.3,51.0,29.83,West,270,0.0,-999.0,99,-99.99,,,0.06,Acu-Link.com,2013-04-04 09:54:00,
2013-04-04 03:10:00,51.4,51.1,29.84,NNW,337,0.0,-999.0,99,-99.99,,,0.08,Acu-Link.com,2013-04-04 10:10:00,
2013-04-04 03:25:00,51.4,51.1,29.84,West,270,0.0,-999.0,99,-99.99,,,0.10,Acu-Link.com,2013-04-04 10:25:00,
2013-04-04 03:40:00,51.4,51.1,29.84,NW,315,0.0,-999.0,99,-99.99,,,0.12,Acu-Link.com,2013-04-04 10:40:00,
2013-04-04 03:56:00,51.4,51.1,29.85,North,0,0.0,-999.0,99,-99.99,,,0.14,Acu-Link.com,2013-04-04 10:56:00,
2013-04-04 04:26:00,51.6,51.3,29.84,SE,135,2.2,-999.0,99,-99.99,,,0.17,Acu-Link.com,2013-04-04 11:26:00,
2013-04-04 04:42:00,51.8,51.5,29.83,East,90,2.7,-999.0,99,-99.99,,,0.21,Acu-Link.com,2013-04-04 11:42:00,
2013-04-04 04:57:00,52.0,51.7,29.83,NNW,337,1.7,-999.0,99,-99.99,,,0.24,Acu-Link.com,2013-04-04 11:57:00,
2013-04-04 05:12:00,52.2,51.9,29.83,ESE,112,1.7,-999.0,99,-99.99,,,0.27,Acu-Link.com,2013-04-04 12:12:00,
2013-04-04 05:28:00,52.5,52.2,29.83,NNE,22,0.0,-999.0,99,-99.99,,,0.31,Acu-Link.com,2013-04-04 12:28:00,
2013-04-04 05:43:00,52.9,52.6,29.83,NE,45,1.1,-999.0,99,-99.99,,,0.36,Acu-Link.com,2013-04-04 12:43:00,
2013-04-04 05:58:00,53.2,52.9,29.83,ESE,112,2.2,-999.0,99,-99.99,,,0.40,Acu-Link.com,2013-04-04 12:58:00,
2013-04-04 06:44:00,53.4,53.1,29.84,North,0,3.2,-999.0,99,-99.99,,,0.53,Acu-Link.com,2013-04-04 13:44:00,
2013-04-04 06:59:00,53.2,52.9,29.84,SSE,157,2.7,-999.0,99,-99.99,,,0.56,Acu-Link.com,2013-04-04 13:59:00,
2013-04-04 07:15:00,53.4,53.1,29.85,WNW,292,1.7,-999.0,99,-99.99,,,0.56,Acu-Link.com,2013-04-04 14:15:00,
2013-04-04 07:30:00,53.6,53.3,29.86,SSE,157,1.7,-999.0,99,-99.99,,,0.56,Acu-Link.com,2013-04-04 14:30:00,
2013-04-04 07:45:00,53.6,53.3,29.87,NNE,22,4.2,-999.0,99,-99.99,,,0.56,Acu-Link.com,2013-04-04 14:45:00,
2013-04-04 08:00:00,53.6,53.3,29.87,SSE,157,1.7,-999.0,99,-99.99,,,0.56,Acu-Link.com,2013-04-04 15:00:00,
2013-04-04 08:16:00,53.8,53.5,29.87,SSE,157,3.7,-999.0,99,-99.99,,,0.56,Acu-Link.com,2013-04-04 15:16:00,
2013-04-04 08:31:00,54.1,53.8,29.87,East,90,0.0,-999.0,99,-99.99,,,0.56,Acu-Link.com,2013-04-04 15:31:00,
2013-04-04 08:46:00,54.7,54.4,29.88,East,90,3.2,-999.0,99,-99.99,,,0.57,Acu-Link.com,2013-04-04 15:46:00,
2013-04-04 09:02:00,55.8,55.5,29.89,NNW,337,1.7,-999.0,99,-99.99,,,0.57,Acu-Link.com,2013-04-04 16:02:00,
2013-04-04 09:17:00,56.7,56.4,29.89,SE,135,2.7,-999.0,99,-99.99,,,0.57,Acu-Link.com,2013-04-04 16:17:00,
2013-04-04 09:32:00,57.2,56.9,29.89,ESE,112,4.7,-999.0,99,-99.99,,,0.57,Acu-Link.com,2013-04-04 16:32:00,
2013-04-04 09:47:00,57.9,57.1,29.90,NNW,337,1.1,-999.0,97,-99.99,,,0.57,Acu-Link.com,2013-04-04 16:47:00,
2013-04-04 10:03:00,58.6,57.2,29.90,ESE,112,4.2,-999.0,95,-99.99,,,0.57,Acu-Link.com,2013-04-04 17:03:00,
2013-04-04 10:18:00,59.2,57.2,29.90,SSE,157,4.7,-999.0,93,-99.99,,,0.57,Acu-Link.com,2013-04-04 17:18:00,
2013-04-04 11:04:00,59.9,58.2,29.91,SE,135,4.2,-999.0,94,-99.99,,,0.57,Acu-Link.com,2013-04-04 18:04:00,
2013-04-04 11:35:00,61.3,57.4,29.92,East,90,4.7,-999.0,87,-99.99,,,0.57,Acu-Link.com,2013-04-04 18:35:00,
2013-04-04 11:50:00,61.9,57.0,29.91,NNE,22,7.3,-999.0,84,-99.99,,,0.57,Acu-Link.com,2013-04-04 18:50:00,
2013-04-04 12:05:00,62.4,57.5,29.91,West,270,2.2,-999.0,84,-99.99,,,0.57,Acu-Link.com,2013-04-04 19:05:00,
2013-04-04 12:20:00,63.3,57.4,29.91,WNW,292,6.3,-999.0,81,-99.99,,,0.57,Acu-Link.com,2013-04-04 19:20:00,
2013-04-04 12:35:00,63.1,57.2,29.91,West,270,3.2,-999.0,81,-99.99,,,0.57,Acu-Link.com,2013-04-04 19:35:00,
2013-04-04 12:50:00,63.0,56.7,29.91,West,270,3.2,-999.0,80,-99.99,,,0.57,Acu-Link.com,2013-04-04 19:50:00,
2013-04-04 13:05:00,63.0,57.1,29.91,ENE,67,5.3,-999.0,81,-99.99,,,0.57,Acu-Link.com,2013-04-04 20:05:00,
2013-04-04 13:21:00,62.8,56.9,29.91,WNW,292,3.2,-999.0,81,-99.99,,,0.57,Acu-Link.com,2013-04-04 20:21:00,
2013-04-04 14:07:00,62.4,56.1,29.91,West,270,2.7,-999.0,80,-99.99,,,0.57,Acu-Link.com,2013-04-04 21:07:00,
2013-04-04 14:22:00,64.4,57.0,29.91,NE,45,3.2,-999.0,77,-99.99,,,0.57,Acu-Link.com,2013-04-04 21:22:00,
2013-04-04 14:37:00,64.6,56.5,29.91,South,180,5.3,-999.0,75,-99.99,,,0.57,Acu-Link.com,2013-04-04 21:37:00,
2013-04-04 14:53:00,63.5,56.9,29.91,North,0,6.3,-999.0,79,-99.99,,,0.57,Acu-Link.com,2013-04-04 21:53:00,
2013-04-04 15:08:00,62.4,56.8,29.91,West,270,2.2,-999.0,82,-99.99,,,0.57,Acu-Link.com,2013-04-04 22:08:00,
2013-04-04 15:23:00,62.8,56.5,29.92,SE,135,3.7,-999.0,80,-99.99,,,0.57,Acu-Link.com,2013-04-04 22:23:00,
2013-04-04 15:38:00,61.5,56.3,29.92,NNE,22,3.2,-999.0,83,-99.99,,,0.57,Acu-Link.com,2013-04-04 22:38:00,
2013-04-04 16:24:00,61.7,56.1,29.92,North,0,6.3,-999.0,82,-99.99,,,0.57,Acu-Link.com,2013-04-04 23:24:00,
2013-04-04 16:39:00,62.8,56.2,29.91,WNW,292,6.3,-999.0,79,-99.99,,,0.57,Acu-Link.com,2013-04-04 23:39:00,
2013-04-04 16:54:00,61.9,56.3,29.91,SW,225,2.7,-999.0,82,-99.99,,,0.57,Acu-Link.com,2013-04-04 23:54:00,
2013-04-04 17:10:00,61.5,56.6,29.91,NNW,337,6.3,-999.0,84,-99.99,,,0.57,Acu-Link.com,2013-04-05 00:10:00,
2013-04-04 17:40:00,60.4,55.9,29.91,WNW,292,6.3,-999.0,85,-99.99,,,0.57,Acu-Link.com,2013-04-05 00:40:00,
2013-04-04 17:55:00,59.5,55.6,29.91,West,270,3.7,-999.0,87,-99.99,,,0.57,Acu-Link.com,2013-04-05 00:55:00,
2013-04-04 18:11:00,58.3,56.0,29.90,ENE,67,5.8,-999.0,92,-99.99,,,0.57,Acu-Link.com,2013-04-05 01:11:00,
2013-04-04 18:41:00,57.9,55.6,29.91,West,270,3.7,-999.0,92,-99.99,,,0.57,Acu-Link.com,2013-04-05 01:41:00,
2013-04-04 18:56:00,57.9,55.6,29.90,WSW,247,2.7,-999.0,92,-99.99,,,0.57,Acu-Link.com,2013-04-05 01:56:00,
2013-04-04 19:12:00,57.7,55.7,29.90,NNE,22,2.7,-999.0,93,-99.99,,,0.57,Acu-Link.com,2013-04-05 02:12:00,
2013-04-04 19:27:00,57.2,55.5,29.91,ESE,112,3.2,-999.0,94,-99.99,,,0.57,Acu-Link.com,2013-04-05 02:27:00,
2013-04-04 19:42:00,56.7,55.6,29.91,WSW,247,1.7,-999.0,96,-99.99,,,0.57,Acu-Link.com,2013-04-05 02:42:00,
2013-04-04 19:57:00,56.3,55.5,29.91,NW,315,5.8,-999.0,97,-99.99,,,0.57,Acu-Link.com,2013-04-05 02:57:00,
2013-04-04 20:13:00,56.3,55.5,29.91,North,0,1.7,-999.0,97,-99.99,,,0.57,Acu-Link.com,2013-04-05 03:13:00,
2013-04-04 20:28:00,56.1,55.5,29.92,NNE,22,2.7,-999.0,98,-99.99,,,0.57,Acu-Link.com,2013-04-05 03:28:00,
2013-04-04 20:59:00,55.8,55.5,29.92,West,270,2.2,-999.0,99,-99.99,,,0.57,Acu-Link.com,2013-04-05 03:59:00,
2013-04-04 21:30:00,55.4,55.1,29.93,NNE,22,2.7,-999.0,99,-99.99,,,0.57,Acu-Link.com,2013-04-05 04:30:00,
2013-04-04 21:45:00,55.4,55.1,29.94,NNW,337,1.7,-999.0,99,-99.99,,,0.57,Acu-Link.com,2013-04-05 04:45:00,
2013-04-04 22:00:00,55.2,54.9,29.94,SSW,202,2.7,-999.0,99,-99.99,,,0.57,Acu-Link.com,2013-04-05 05:00:00,
2013-04-04 22:15:00,55.2,54.9,29.94,West,270,1.7,-999.0,99,-99.99,,,0.57,Acu-Link.com,2013-04-05 05:15:00,
2013-04-04 22:46:00,55.2,54.9,29.94,West,270,0.0,-999.0,99,-99.99,,,0.57,Acu-Link.com,2013-04-05 05:46:00,
2013-04-04 23:01:00,55.2,54.9,29.95,WNW,292,2.7,-999.0,99,-99.99,,,0.57,Acu-Link.com,2013-04-05 06:01:00,
2013-04-04 23:17:00,55.2,54.9,29.94,North,0,0.0,-999.0,99,-99.99,,,0.57,Acu-Link.com,2013-04-05 06:17:00,
2013-04-04 23:32:00,55.4,55.1,29.95,ESE,112,1.1,-999.0,99,-99.99,,,0.57,Acu-Link.com,2013-04-05 06:32:00,
2013-04-04 23:47:00,55.4,55.1,29.95,WNW,292,1.1,-999.0,99,-99.99,,,0.57,Acu-Link.com,2013-04-05 06:47:00,